Regional Weather Roundup
Issued by NWS

Home | Current Version | Previous Version | Text Only | Print | Product List | Glossary Off
Versions: 1 2 3 4 5 6 7 8 9 10 11 12 13 14 15 16 17 18 19 20 21 22 23 24 25 26 27 28

000
ASUS45 KTFX 211610
RWRMT
MONTANA REGIONAL WEATHER ROUNDUP
NATIONAL WEATHER SERVICE GREAT FALLS MT
1000 AM MDT THU SEP 21 2017

NOTE: "FAIR" INDICATES FEW OR NO CLOUDS BELOW 12000 FEET WITH NO
SIGNIFICANT WEATHER AND/OR OBSTRUCTIONS TO VISIBILITY.

MTZ001>007-043-211700-
WEST OF THE DIVIDE

CITY           SKY/WX    TMP DP  RH WIND       PRES   REMARKS
KALISPELL      CLOUDY    42  38  85 CALM      29.84R
MISSOULA       CLOUDY    43  38  82 NE3       29.85S
BUTTE          CLOUDY    36  33  89 CALM      29.83S
MULLAN PASS    FOG       31  29  92 CALM      29.82R VSB 1/2
ANACONDA         N/A     39  30  70 SE5       29.83S
DEER LODGE       N/A     37  32  81 CALM      29.86R
EUREKA           N/A     45  39  81 CALM      29.83S
HAMILTON         N/A     43  34  70 S5        29.84R
LIBBY            N/A     41  36  81 CALM      29.84S
PLAINS           N/A     47  41  80 CALM      29.87R
$$

MTZ008-052>055-211700-
SOUTHWEST MONTANA

CITY           SKY/WX    TMP DP  RH WIND       PRES   REMARKS
BOZEMAN        CLOUDY    44  36  73 CALM      29.82S
DILLON         CLOUDY    39  32  76 CALM      29.82R
W YELLOWSTONE  LGT SNOW  32  32 100 MISG      29.81R
ENNIS          CLOUDY    39  34  81 CALM      29.86S
THREE FORKS      N/A     45  36  70 MISG      29.83S
TWIN BRIDGES     N/A     41  31  68 CALM      29.83R
$$

MTZ009-010-012-014-046-048-049-054-211700-
EAST SLOPES AND CENTRAL MONTANA

CITY           SKY/WX    TMP DP  RH WIND       PRES   REMARKS
CUT BANK       MOSUNNY   41  33  73 N12       29.80S
GREAT FALLS    PTSUNNY   46  28  49 NW3       29.82R
MALMSTROM AFB  MOSUNNY   44  31  59 SW6       29.82R
HELENA         CLOUDY    43  34  70 E3        29.83R
BOWMANS CRNR     N/A     41  30  64 S6        29.80R
CHOTEAU          N/A     43  32  65 CALM      29.83R
FAIRFIELD        N/A     42  32  68 SE6       29.81R
POWER            N/A     42  33  69 NE5       29.81R
RAYNESFORD       N/A     43  29  58 CALM      29.82R
ULM              N/A     44  31  60 E3        29.82R
$$

MTZ011-013-016-021-045-047-050-051-211700-
NORTH CENTRAL MONTANA

CITY           SKY/WX    TMP DP  RH WIND       PRES   REMARKS
HAVRE          CLOUDY    43  35  73 VRB7      29.82R
LEWISTOWN      CLOUDY    45  28  51 W7        29.81R
N BAR RANCH      N/A     48  25  40 NW15      29.82R
CHINOOK          N/A     43  36  75 W9        29.82R
DENTON           N/A     47  31  53 W8        29.77R
GEYSER         PTSUNNY   45  29  52 W8        29.81R
GRASS RANGE      N/A     47  29  48 NW5       29.77R
JUDITH GAP       N/A     44  26  48 NW13      29.81R
WINIFRED         N/A     44  31  59 W5        29.80R
$$

MTZ017>020-022>027-061-062-211700-
NORTHEAST MONTANA

CITY           SKY/WX    TMP DP  RH WIND       PRES   REMARKS
GLASGOW        CLOUDY    49  35  58 NW12      29.75R
JORDAN           N/A     53  35  50 NW10      29.76R
SIDNEY         LGT RAIN  53  43  68 NW6       29.72R
WOLF POINT     CLOUDY    53  39  59 CALM      29.73R
MALTA          SUNNY     48  34  57 W12       29.79R
POPLAR           N/A     52  41  66 SW6       29.74R
SCOBEY           N/A     47  32  56 W9        29.74R
$$

MTZ028>42-056>058-211700-
SOUTHCENTRAL AND SOUTHEAST MONTANA

CITY           SKY/WX    TMP DP  RH WIND       PRES   REMARKS
BAKER          SUNNY     60  38  43 NW15      29.73S
BILLINGS       CLOUDY    47  44  90 S8        29.80S
LIVINGSTON     CLOUDY    45  38  76 SW6       29.81R
MILES CITY     CLOUDY    53  41  63 NW8       29.75R
BIG TIMBER     PTSUNNY   45  36  70 S5        29.83S
EKALAKA          N/A     57  37  47 NW9       29.75R
HARLOWTON        N/A     45  30  54 MISG      29.81R
LAUREL           N/A     46  45  93 SE7       29.82R
$$

REGIONAL REPORTS...DAKOTAS

CITY           SKY/WX    TMP DP  RH WIND       PRES   REMARKS
WILLISTON      CLOUDY    52  43  71 CALM      29.71R
MINOT          CLOUDY    61  43  51 CALM      29.70R
DICKINSON      PTSUNNY   59  37  44 NW15      29.68R
BEACH            N/A     57  39  51 N15       29.75S
CROSBY           N/A     52  41  66 S7        29.71S
BISMARCK       SUNNY     70  49  47 S23G31    29.68F
GRAND FORKS    MOSUNNY   68  51  54 S18       29.80F
FARGO          SUNNY     69  46  43 SE18G37   29.81F
BUFFALO SD       N/A     64  36  35 N23       29.62R
RAPID CITY     SUNNY     66  41  39 S10       29.68R
$$

REGIONAL REPORTS...WYOMING/IDAHO/WASHINGTON

CITY           SKY/WX    TMP DP  RH WIND       PRES   REMARKS
GILLETTE       SUNNY     56  40  55 N13       29.75R
SHERIDAN       CLOUDY    54  42  64 N9        29.79R
BUFFALO WY     SUNNY     52  37  56 N8        29.80R
CODY           LGT RAIN  42  40  92 N9        29.81R
IDAHO FALLS    LGT RAIN  39  37  92 S7        29.83R
SALMON         CLOUDY    41  37  86 CALM      29.85S
BOISE          LGT RAIN  47  45  93 W6        29.83R
SPOKANE        LGT RAIN  42  42 100 SE7       29.85S FOG
$$

REGIONAL REPORTS...ALBERTA

CITY           SKY/WX    TMP DP  RH WIND       PRES   REMARKS
EDMONTON       LGT RAIN  37  37 100 N14G20    29.79R WCI  29
CALGARY        LGT RAIN  37  34  87 NW15G22   29.81R FOG     WCI  28
LETHBRIDGE     CLOUDY    43  34  70 W5        29.82R
MEDICINE HAT   PTSUNNY   45  34  65 W15       29.79R
$$

REGIONAL REPORTS...SASKATCHEWAN

CITY           SKY/WX    TMP DP  RH WIND       PRES   REMARKS
SWIFT CURRENT  CLOUDY    41  36  81 W15G23    29.74R
REGINA         PTSUNNY   48  37  66 NW13G18   29.72R
SASKATOON      MOSUNNY   45  39  81 SW15      29.68R
$$




USA.gov is the U.S. government's official web portal to all federal, state and local government web resources and services.